Agassiz, British Columbia

8:45 PM PDT on May 25, 2017 (GMT -0700)
Agassiz

Weather History for CWZA - December, 2013

Change the Weather History Date:

Sunday, December 1, 2013

  Actual Average Record
Temperature  
Mean Temperature 48 °F -  
Max Temperature 54 °F 42 °F - ()
Min Temperature 43 °F 32 °F - ()
Degree Days  
Heating Degree Days 16    
Moisture  
Dew Point 43 °F    
Average Humidity 88    
Maximum Humidity 99    
Minimum Humidity 63    
Precipitation  
Precipitation 0.55 in 0.31 in - ()
Sea Level Pressure  
Sea Level Pressure 29.79 in    
Wind  
Wind Speed 2 mph ()    
Max Wind Speed 8 mph    
Max Gust Speed 22 mph    
T = Trace of Precipitation, MM = Missing Value Source: Averaged Metar Reports

Daily Weather History Graph

Daily Weather History Graph

Search for Another Location

Airport or City:

Trip Planner

Search our weather history database for the weather conditions in past years. The results will help you decide how hot, cold, wet, or windy it might be!

Date:

Astronomy

Dec. 01, 2013 Rise Set
Actual Time 7:41 AM PST 4:11 PM PST
Civil Twilight 7:04 AM PST 4:47 PM PST
Nautical Twilight 6:24 AM PST 5:27 PM PST
Astronomical Twilight 5:46 AM PST 6:06 PM PST
Moon 5:58 AM PST (12/1) 3:30 PM PST (12/1)
Length of Visible Light 9h 43m
Length of Day
8h 29m
Waning Crescent, 2% of the Moon is Illuminated
Dec 1
Waning Crescent
Dec 2
New
Dec 9
First Quarter
Dec 17
Full
Dec 25
Last Quarter

Hourly Weather History & Observations

Time (PST) Temp. Windchill Dew Point Humidity Pressure Visibility Wind Dir Wind Speed Gust Speed Precip Events Conditions
12:00 AM 43.7 °F - 43.3 °F 99% 30.06 in - West 1.2 mph - 0.11 in   Unknown
1:00 AM 43.3 °F 41.7 °F 43.0 °F 99% 30.02 in - NNW 3.5 mph - 0.10 in   Unknown
2:00 AM 43.2 °F - 42.8 °F 99% 29.98 in - Calm Calm - 0.09 in   Unknown
3:00 AM 43.2 °F - 42.8 °F 99% 29.93 in - SE 2.3 mph - 0.05 in   Unknown
4:00 AM 44 °F - 43 °F 96% 29.88 in - NW 2.3 mph - -  
4:00 AM 43.5 °F - 43.2 °F 99% 29.88 in - NW 2.3 mph - 0.08 in   Unknown
5:00 AM 43.5 °F 41.9 °F 43.2 °F 99% 29.82 in - NW 3.5 mph - 0.07 in   Unknown
6:00 AM 43.7 °F - 43.3 °F 99% 29.80 in - NNW 1.2 mph - 0.04 in   Unknown
7:00 AM 43.7 °F - 43.3 °F 99% 29.79 in - South 1.2 mph - 0.10 in   Unknown
8:00 AM 43.7 °F - 43.3 °F 99% 29.79 in - Calm Calm - 0.10 in   Unknown
9:00 AM 44.1 °F - 43.7 °F 99% 29.78 in - NE 1.2 mph - 0.05 in   Unknown
10:00 AM 47 °F - 46 °F 97% 29.78 in - NNW 4.6 mph - -  
10:00 AM 46.8 °F - 46.4 °F 99% 29.78 in - NNW 4.6 mph - 0.01 in   Unknown
11:00 AM 53.4 °F - 46.0 °F 76% 29.80 in - West 5.8 mph - N/A   Unknown
12:00 PM 53.1 °F - 44.6 °F 73% 29.78 in - SW 3.5 mph - N/A   Unknown
1:00 PM 52.7 °F - 44.6 °F 74% 29.76 in - WSW 3.5 mph - N/A   Unknown
2:00 PM 51.4 °F - 45.5 °F 80% 29.75 in - WNW 4.6 mph - N/A   Unknown
3:00 PM 49.6 °F - 44.2 °F 82% 29.75 in - SW 5.8 mph - 0.03 in   Unknown
4:00 PM 49 °F - 45 °F 81% 29.72 in - NE 1.2 mph - -  
4:00 PM 48.6 °F - 45.0 °F 87% 29.72 in - NE 1.2 mph - 0.02 in   Unknown
5:00 PM 45.9 °F 44.6 °F 41.0 °F 83% 29.74 in - SW 3.5 mph - 0.14 in   Unknown
6:00 PM 44.2 °F - 42.8 °F 95% 29.71 in - NNE 2.3 mph - N/A   Unknown
7:00 PM 45.7 °F - 44.2 °F 95% 29.69 in - NNE 2.3 mph - N/A   Unknown
8:00 PM 46.8 °F - 41.4 °F 81% 29.70 in - West 3.5 mph - N/A   Unknown
9:00 PM 46.4 °F - 40.1 °F 79% 29.68 in - West 2.3 mph - N/A   Unknown
10:00 PM 46 °F - 38 °F 63% 29.68 in - WSW 6.9 mph - -  
10:00 PM 46.2 °F 42.7 °F 37.6 °F 72% 29.68 in - WSW 6.9 mph - N/A   Unknown
11:00 PM 44.6 °F 40.2 °F 36.5 °F 73% 29.69 in - WSW 8.1 mph 21.9 mph 0.03 in   Unknown